Terug naar catalogus

CZ-6A DEB

ActiefPO
NORAD 61081·DEBRIS·🇨🇳 China

Gelanceerd Aug 6, 2024 vanaf Taiyuan Satellite Launch Center

Loading…

Volgende Passages (komende 24 uur)

TLE

VersSource: Space-Track

Epoch: Sep 14, 2026, 16:56 UTC

1 61081U 24140MX  26257.70593210  .00002314  00000-0  40813-3 0  9995
2 61081  88.9759 256.7215 0108913 286.3671  72.5590 14.63364124109368

Volg CZ-6A DEB in realtime met AllMySat

Download on the App Store